Location: Bucksport
(44.6167°N, 68.8000°W)
Time: 09:16:00
(UTC-05:00)

N. Korean satellite - Pass Details

Date: 26 October 2019
Orbit: 456 x 506 km, 97.2° (Epoch: 20 November)

Event Time Altitude Azimuth Distance (km) Brightness Sun altitude
Rises 06:05:05 0° 19° (NNE) 2,581 10.4 -11.2°
Reaches altitude 10° 06:07:16 10° 28° (NNE) 1,702 9.6 -10.8°
Maximum altitude 06:10:43 38° 98° (E) 774 8.3 -10.2°
Drops below altitude 10° 06:14:10 10° 168° (SSE) 1,707 9.6 -9.6°
Sets 06:16:21 0° 176° (S) 2,590 10.4 -9.2°
